CW9119 Weather Reports


Display with metric or nautical units.
time (UTC)temp
F
wind
direction
speed
MPH
gust
MPH
rain 1hr
in
rain 24hr
in
rain mn
in
humidity
%
barometer
mb
20260507032109 51 113 0.0 0.0 0.06 0.34 0.24 94 1005.9
20260507031109 51 112 0.0 0.0 0.04 0.32 0.22 94 1005.9
20260507030109 51 112 0.0 0.0 0.03 0.31 0.21 94 1006.0
20260507025109 51 112 0.0 0.0 0.02 0.31 0.20 94 1006.0
20260507024109 51 112 0.0 0.0 0.01 0.29 0.19 94 1006.0
20260507023109 51 112 0.0 0.0 0.00 0.28 0.18 94 1005.8
20260507021109 51 112 0.0 0.0 0.00 0.28 0.18 94 1005.9
20260507011112 52 112 0.0 0.0 0.00 0.28 0.18 94 1005.6
20260507010112 52 111 0.0 1.0 0.00 0.28 0.18 94 1005.4
20260507004112 52 111 2.0 6.0 0.01 0.30 0.18 94 1005.3
20260507003112 52 107 1.0 6.0 0.01 0.30 0.18 94 1005.1
20260507002112 52 107 0.0 5.0 0.01 0.30 0.18 93 1005.1
20260507000112 52 107 0.0 0.0 0.06 0.30 0.18 93 1004.6
20260506235111 52 107 1.0 7.0 0.07 0.44 0.18 93 1004.2
20260506234111 52 93 0.0 2.0 0.09 0.43 0.17 93 1004.3
20260506233111 52 93 1.0 7.0 0.13 0.43 0.17 93 1004.4
20260506232111 53 140 1.0 5.0 0.15 0.43 0.17 93 1004.4
20260506230111 53 144 0.0 0.0 0.13 0.39 0.13 93 1005.2
20260506225111 53 144 0.0 0.0 0.11 0.44 0.11 93 1005.3
20260506223111 53 144 0.0 0.0 0.05 0.38 0.05 92 1005.3
20260506222111 53 144 0.0 0.0 0.02 0.35 0.02 92 1005.3
20260506215111 53 131 0.0 1.0 0.02 0.34 0.34 91 1004.2
20260506214111 53 132 0.0 6.0 0.05 0.34 0.34 91 1004.0
20260506210110 54 130 0.0 5.0 0.07 0.33 0.33 90 1004.0
20260506204110 54 130 1.0 6.0 0.03 0.29 0.29 90 1004.2
20260506203110 53 171 2.0 7.0 0.01 0.27 0.27 90 1004.2
20260506201110 53 137 0.0 0.0 0.00 0.26 0.26 90 1004.0
20260506193110 54 137 0.0 0.0 0.00 0.27 0.26 87 1003.6
20260506191110 54 137 0.0 0.0 0.00 0.27 0.26 86 1003.4
20260506190113 55 137 0.0 1.0 0.00 0.27 0.26 85 1003.4
20260506185113 55 137 0.0 0.0 0.00 0.30 0.26 85 1003.1
20260506182113 56 137 2.0 8.0 0.02 0.30 0.26 83 1003.6
20260506181113 57 84 1.0 4.0 0.02 0.30 0.26 82 1003.6
20260506175113 59 160 3.0 13.0 0.02 0.30 0.26 77 1003.7
20260506171112 63 209 0.0 0.0 0.00 0.28 0.24 63 1003.5
20260506165112 64 209 0.0 0.0 0.00 0.28 0.24 59 1003.8
20260506162112 65 209 0.0 0.0 0.00 0.28 0.24 57 1003.6
20260506161112 65 209 0.0 0.0 0.00 0.28 0.24 57 1003.5
20260506160112 66 209 1.0 5.0 0.00 0.28 0.24 56 1003.7
20260506153112 66 234 1.0 6.0 0.00 0.28 0.24 56 1003.9
20260506150112 66 36 2.0 7.0 0.00 0.28 0.24 59 1004.1
20260506145112 66 173 2.0 11.0 0.00 0.28 0.24 57 1004.1
20260506144111 66 248 0.0 5.0 0.00 0.28 0.24 57 1004.1
20260506142112 66 196 1.0 6.0 0.00 0.28 0.24 58 1004.5
20260506133111 66 156 2.0 10.0 0.00 0.28 0.24 61 1004.9
20260506132111 65 210 1.0 7.0 0.00 0.28 0.24 61 1004.8
20260506130111 63 163 0.0 5.0 0.00 0.28 0.24 68 1004.9
20260506125111 63 161 0.0 6.0 0.00 0.28 0.24 68 1005.1
20260506124111 63 174 2.0 8.0 0.00 0.28 0.24 68 1005.0
20260506122110 63 162 1.0 6.0 0.00 0.28 0.24 69 1005.1
20260506121110 62 170 3.0 12.0 0.00 0.28 0.24 70 1005.2
20260506115110 61 165 1.0 8.0 0.01 0.28 0.24 73 1005.2
20260506114110 60 153 6.0 14.0 0.01 0.28 0.24 73 1005.1
20260506112110 60 159 4.0 10.0 0.01 0.28 0.24 73 1005.2
20260506111110 61 165 1.0 6.0 0.01 0.28 0.24 74 1005.2
20260506110110 61 159 2.0 8.0 0.00 0.28 0.24 74 1005.5
20260506104110 61 155 1.0 10.0 0.00 0.28 0.24 78 1005.3
20260506103110 60 147 1.0 6.0 0.00 0.28 0.24 81 1005.1
20260506102110 59 153 2.0 12.0 0.00 0.28 0.24 80 1005.1
20260506101109 58 170 3.0 7.0 0.00 0.28 0.24 81 1004.9
20260506095113 59 153 2.0 11.0 0.00 0.28 0.24 80 1005.0
20260506093113 58 160 3.0 11.0 0.00 0.28 0.24 82 1004.9
20260506085113 57 155 4.0 12.0 0.00 0.28 0.24 85 1004.6
20260506083113 56 155 0.0 2.0 0.00 0.28 0.24 86 1004.4
20260506082113 56 142 0.0 5.0 0.00 0.28 0.24 88 1004.5
20260506081112 55 154 1.0 6.0 0.00 0.28 0.24 88 1004.3
20260506080112 55 153 0.0 5.0 0.00 0.28 0.24 89 1004.2
20260506073112 55 155 0.0 6.0 0.00 0.28 0.24 90 1004.3
20260506072112 55 152 1.0 7.0 0.00 0.28 0.24 92 1004.3
20260506062112 51 242 1.0 6.0 0.00 0.28 0.24 94 1004.1
20260506061111 51 278 0.0 0.0 0.00 0.28 0.24 94 1004.2
20260506060111 51 251 1.0 4.0 0.00 0.28 0.24 94 1004.2
20260506051111 51 329 0.0 0.0 0.00 0.28 0.24 94 1004.0
20260506050111 51 329 0.0 5.0 0.00 0.28 0.24 94 1003.8
20260506044111 50 329 0.0 0.0 0.00 0.28 0.24 94 1003.7
20260506035110 51 329 0.0 0.0 0.00 0.28 0.24 94 1003.8